This is the latest recevied weather packets stored in our database for station/object KL1SF-7. If no packets are shown the sender has not sent any weather packets the latest 10 day(s).
| Time | Temp. | Humidity | Pressure | Rain* | Wind** | Luminosity | Snow |
|---|---|---|---|---|---|---|---|
| 1777109014 | 5.56° C | 31% | 1011 hPa | 0 mm | - | - | - |
| 1777108403 | 6.11° C | 30% | 1011 hPa | 0 mm | - | - | - |
| 1777107821 | 6.11° C | 29% | 1011.4 hPa | 0 mm | - | - | - |
| 1777107206 | 6.67° C | 28% | 1011.5 hPa | 0 mm | - | - | - |
| 1777106617 | 6.67° C | 28% | 1011.5 hPa | 0 mm | - | - | - |
| 1777106029 | 6.67° C | 28% | 1011.6 hPa | 0 mm | - | - | - |
| 1777105409 | 6.67° C | 28% | 1011.9 hPa | 0 mm | - | - | - |
| 1777104802 | 6.67° C | 27% | 1011.9 hPa | 0 mm | - | - | - |
| 1777104215 | 6.67° C | 28% | 1011.9 hPa | 0 mm | - | - | - |
| 1777103615 | 6.67° C | 28% | 1012.1 hPa | 0 mm | - | - | - |
| 1777103009 | 6.67° C | 27% | 1012.1 hPa | 0 mm | - | - | - |
| 1777102422 | 7.22° C | 27% | 1011.8 hPa | 0 mm | - | - | - |
| 1777101803 | 7.22° C | 26% | 1012 hPa | 0 mm | - | - | - |
| 1777101211 | 7.78° C | 26% | 1012 hPa | 0 mm | - | - | - |
| 1777100624 | 7.78° C | 25% | 1012.4 hPa | 0 mm | - | - | - |
| 1777100005 | 7.78° C | 25% | 1012.5 hPa | 0 mm | - | - | - |
| 1777099418 | 8.33° C | 24% | 1012.5 hPa | 0 mm | - | - | - |
| 1777098811 | 8.33° C | 24% | 1012.5 hPa | 0 mm | - | - | - |
| 1777098212 | 8.33° C | 24% | 1012.3 hPa | 0 mm | - | - | - |
| 1777097603 | 8.33° C | 24% | 1012.3 hPa | 0 mm | - | - | - |
| 1777097017 | 8.89° C | 23% | 1012.3 hPa | 0 mm | - | - | - |
| 1777096419 | 8.89° C | 23% | 1011.9 hPa | 0 mm | - | - | - |
| 1777095812 | 8.89° C | 23% | 1011.9 hPa | 0 mm | - | - | - |
| 1777095224 | 9.44° C | 22% | 1012.1 hPa | 0 mm | - | - | - |
| 1777094605 | 9.44° C | 22% | 1012 hPa | 0 mm | - | - | - |
* Rain since midnight (hover to see other rain measurements)
** Current wind speed in m/s (hover to see current wind gust speed)